Regional Weather Roundup
Issued by NWS Sioux Falls, SD

Home | Current Version | Previous Version | Text Only | Print | Product List | Glossary On
Versions: 1 2 3 4 5 6 7 8 9 10 11 12 13 14 15 16 17 18 19 20 21 22 23 24 25 26 27 28 29 30 31 32 33 34 35 36 37 38 39 40 41 42 43 44 45 46 47 48 49 50
000
ASUS43 KFSD 171710
RWRFSD

WEATHER ROUNDUP FOR SE SOUTH DAKOTA/SW MINNESOTA/NW IOWA
NATIONAL WEATHER SERVICE SIOUX FALLS SD
1200 PM CDT TUE OCT 17 2017

NOTE: "FAIR" INDICATES FEW OR NO CLOUDS BELOW 12,000 FEET WITH NO
SIGNIFICANT WEATHER AND OR OBSTRUCTIONS TO VISIBILITY.


SDZ038>040-050-052>070-171800-
SOUTHEAST SOUTH DAKOTA

CITY           SKY/WX    TMP DP  RH WIND       PRES   REMARKS
BROOKINGS      SUNNY     65  46  50 S3        30.02F
CHAMBERLAIN    SUNNY     70  42  36 SW3       30.03F
HURON          SUNNY     65  43  44 MISG      30.00F
MADISON        FAIR      66  39  37 SW10      30.03F
MITCHELL       SUNNY     68  44  42 S6        30.03F
SIOUX FALLS    SUNNY     67  48  50 VRB3      30.04F
WINNER         FAIR      71  40  32 SW8       30.04F
YANKTON        SUNNY     66  46  48 S6        30.05F
$$

MNZ071-072-080-081-089-090-097-098-171800-
SOUTHWEST MINNESOTA

CITY           SKY/WX    TMP DP  RH WIND       PRES   REMARKS
FAIRMONT       SUNNY     67  44  43 MISG      30.05S
JACKSON        SUNNY     66  41  39 SW7       30.05S
LUVERNE        SUNNY     64  41  42 SW6       30.05S
MARSHALL       SUNNY     71  39  31 W12       30.01F
MONTEVIDEO     SUNNY     70  45  40 CALM      30.00F
PIPESTONE      SUNNY     66  43  42 W6        30.03F
REDWOOD FALLS  SUNNY     65  40  39 SW5       30.01F
TRACY          SUNNY     71  41  33 SW8       30.02S
WORTHINGTON    SUNNY     67  41  38 SW8       30.05S
$$

IAZ001>003-012>014-020>022-031-032-NEZ013-014-SDZ071-171800-
NORTHWEST IOWA

CITY           SKY/WX    TMP DP  RH WIND       PRES   REMARKS
CHEROKEE       SUNNY     62  48  58 S3        30.06F
DENISON        SUNNY     63  43  48 VRB6      30.10F
ESTHERVILLE    SUNNY     66  43  43 SW6       30.05R
LE MARS        SUNNY     64  45  48 S6        30.05F
ORANGE CITY    SUNNY     66  48  52 S5        30.06S
SHELDON        SUNNY     64  43  45 VRB6      30.04F
SIOUX CITY     SUNNY     63  46  54 SE6       30.07F
SPENCER        SUNNY     67  42  40 SW5       30.05F
STORM LAKE     SUNNY     63  43  48 SW10      30.07F
$$

ABBREVIATIONS USED IN REMARKS
   TC - TEMPERATURE IN CELSIUS
  WCI - WIND CHILL INDEX
   HX - HEAT INDEX
  VSB - VISIBILITY





USA.gov is the U.S. government's official web portal to all federal, state and local government web resources and services.